1546110000.27,52498,0.0,0.0,-11.37,-11.93,-11.93,0,*66
1546110001.57,52499,0.0,0.0,-11.37,-11.93,-11.93,0,*67
1546110002.87,52500,0.0,0.0,-11.37,-11.93,-11.89,0,*6D
1546110004.18,52501,0.0,0.0,-11.37,-11.93,-11.93,0,*67
1546110005.48,52502,0.0,0.0,-11.37,-11.93,-11.89,0,*6F
1546110006.78,52503,0.0,0.0,-11.37,-11.93,-11.93,0,*65
1546110008.08,52504,0.0,0.0,-11.33,-11.89,-11.89,0,*66
1546110009.35,52505,0.0,0.0,-11.35,-11.89,-11.89,0,*61
1546110010.62,52506,0.0,0.0,-11.35,-11.93,-11.93,0,*62
1546110011.92,52507,0.0,0.0,-11.37,-11.89,-11.89,0,*61
1546110013.22,52508,0.0,0.0,-11.37,-11.93,-11.89,0,*65
1546110014.53,52509,0.0,0.0,-11.37,-11.93,-11.89,0,*64
1546110015.82,52510,0.0,0.0,-11.37,-11.89,-11.93,0,*6C
1546110017.13,52511,0.0,0.0,-11.37,-11.93,-11.93,0,*66
1546110018.43,52512,0.0,0.0,-11.37,-11.89,-11.93,0,*6E
1546110019.72,52513,0.0,0.0,-11.37,-11.89,-11.89,0,*64
1546110020.99,52514,0.0,0.0,-11.35,-11.89,-11.89,0,*61
1546110022.27,52515,0.0,0.0,-11.35,-11.93,-11.89,0,*6B
1546110023.55,52516,0.0,0.0,-11.35,-11.93,-11.93,0,*63
1546110024.82,52517,0.0,0.0,-11.35,-11.93,-11.89,0,*69
1546110026.11,52518,0.0,0.0,-11.33,-11.89,-11.85,0,*67
1546110027.39,52519,0.0,0.0,-11.35,-11.93,-11.93,0,*6C
1546110028.67,52520,0.0,0.0,-11.35,-11.93,-11.93,0,*66
1546110029.94,52521,0.0,0.0,-11.35,-11.93,-11.89,0,*6C
1546110031.22,52522,0.0,0.0,-11.35,-11.93,-11.93,0,*64
1546110032.49,52523,0.0,0.0,-11.35,-11.89,-11.89,0,*65
1546110033.77,52524,0.0,0.0,-11.35,-11.93,-11.93,0,*62
1546110035.06,52525,0.0,0.0,-11.33,-11.89,-11.85,0,*69
1546110036.34,52526,0.0,0.0,-11.35,-11.93,-11.93,0,*60
1546110037.61,52527,0.0,0.0,-11.35,-11.93,-11.89,0,*6A
1546110038.89,52528,0.0,0.0,-11.35,-11.93,-11.93,0,*6E
1546110040.18,52529,0.0,0.0,-11.33,-11.85,-11.89,0,*65
1546110041.48,52530,0.0,0.0,-11.33,-11.89,-11.89,0,*61
1546110042.75,52531,0.0,0.0,-11.35,-11.89,-11.93,0,*6D
1546110044.02,52532,0.0,0.0,-11.35,-11.93,-11.93,0,*65
1546110045.32,52533,0.0,0.0,-11.33,-11.85,-11.89,0,*6E
1546110046.59,52534,0.0,0.0,-11.35,-11.89,-11.89,0,*63
1546110047.88,52535,0.0,0.0,-11.33,-11.85,-11.85,0,*64
1546110049.17,52536,0.0,0.0,-11.33,-11.89,-11.85,0,*6B
1546110050.46,52537,0.0,0.0,-11.33,-11.89,-11.89,0,*66
1546110051.74,52538,0.0,0.0,-11.35,-11.93,-11.89,0,*64
1546110053.03,52539,0.0,0.0,-11.33,-11.89,-11.85,0,*64
1546110054.28,52540,0.0,0.0,-11.35,-11.93,-12.03,0,*6A
1546110055.57,52541,0.0,0.0,-11.33,-11.89,-11.85,0,*6B
1546110056.86,52542,0.0,0.0,-11.33,-11.89,-11.85,0,*68
1546110058.15,52543,0.0,0.0,-11.33,-11.85,-11.85,0,*65
1546110059.43,52544,0.0,0.0,-11.35,-11.93,-11.93,0,*64
1546110060.7,52545,0.0,0.0,-11.35,-11.93,-11.93,0,*65
1546110062.0,52546,0.0,0.0,-11.33,-11.89,-11.89,0,*60
1546110063.27,52547,0.0,0.0,-11.35,-11.89,-11.93,0,*6C
1546110064.53,52548,0.0,0.0,-11.35,-11.89,-11.81,0,*60
1546110065.81,52549,0.0,0.0,-11.35,-11.93,-11.89,0,*62
1546110067.08,52550,0.0,0.0,-11.35,-11.93,-11.93,0,*61
1546110068.36,52551,0.0,0.0,-11.35,-11.93,-11.93,0,*60
1546110069.65,52552,0.0,0.0,-11.33,-11.89,-11.85,0,*69
1546110070.94,52553,0.0,0.0,-11.33,-11.89,-11.89,0,*64
1546110072.23,52554,0.0,0.0,-11.33,-11.89,-11.85,0,*6F
1546110073.53,52555,0.0,0.0,-11.33,-11.89,-11.85,0,*6E
1546110074.82,52556,0.0,0.0,-11.33,-11.85,-11.89,0,*6D
1546110076.11,52557,0.0,0.0,-11.33,-11.85,-11.89,0,*6C
1546110077.38,52558,0.0,0.0,-11.35,-11.89,-11.93,0,*62
1546110078.67,52559,0.0,0.0,-11.33,-11.89,-11.85,0,*62
1546110079.94,52560,0.0,0.0,-11.35,-11.89,-11.89,0,*62
1546110081.23,52561,0.0,0.0,-11.33,-11.97,-11.89,0,*6A
1546110082.51,52562,0.0,0.0,-11.35,-11.93,-11.89,0,*6B
1546110083.8,52563,0.0,0.0,-11.33,-11.89,-11.85,0,*6B
1546110085.09,52564,0.0,0.0,-11.33,-11.85,-11.89,0,*6C
1546110086.38,52565,0.0,0.0,-11.33,-11.89,-11.85,0,*6D
1546110087.67,52566,0.0,0.0,-11.33,-11.85,-11.85,0,*62
1546110088.95,52567,0.0,0.0,-11.35,-11.93,-11.93,0,*65
1546110090.24,52568,0.0,0.0,-11.33,-11.85,-11.89,0,*60
1546110091.53,52569,0.0,0.0,-11.33,-11.89,-11.85,0,*61
1546110092.83,52570,0.0,0.0,-11.33,-11.89,-11.85,0,*69
1546110094.12,52571,0.0,0.0,-11.33,-11.85,-11.89,0,*68
1546110095.41,52572,0.0,0.0,-11.33,-11.89,-11.85,0,*6B
1546110096.7,52573,0.0,0.0,-11.33,-11.85,-11.85,0,*66
1546110097.99,52574,0.0,0.0,-11.33,-11.89,-11.85,0,*6D
1546110099.26,52575,0.0,0.0,-11.35,-11.89,-11.89,0,*66
1546110100.55,52576,0.0,0.0,-11.33,-11.89,-11.85,0,*6F
1546110101.84,52577,0.0,0.0,-11.33,-11.97,-11.89,0,*6D
1546110103.13,52578,0.0,0.0,-11.33,-11.89,-11.85,0,*61
1546110104.43,52579,0.0,0.0,-11.33,-11.89,-11.89,0,*6C
1546110105.72,52580,0.0,0.0,-11.33,-11.85,-11.89,0,*66
1546110106.99,52581,0.0,0.0,-11.31,-11.89,-11.89,0,*69
1546110108.26,52582,0.0,0.0,-11.31,-11.89,-11.89,0,*6A
1546110109.53,52583,0.0,0.0,-11.31,-11.89,-11.85,0,*67
1546110110.79,52584,0.0,0.0,-11.31,-11.89,-11.85,0,*60
1546110112.06,52585,0.0,0.0,-11.31,-11.85,-11.85,0,*6D
1546110113.33,52586,0.0,0.0,-11.31,-11.89,-11.85,0,*62
1546110114.61,52587,0.0,0.0,-11.33,-11.85,-11.85,0,*6D
1546110115.91,52588,0.0,0.0,-11.33,-11.89,-11.89,0,*62
1546110117.2,52589,0.0,0.0,-11.33,-11.85,-11.89,0,*6F
1546110118.49,52590,0.0,0.0,-11.33,-11.85,-11.89,0,*67
1546110119.76,52591,0.0,0.0,-11.31,-11.89,-11.85,0,*64
1546110121.03,52592,0.0,0.0,-11.31,-11.85,-11.89,0,*67
1546110122.3,52593,0.0,0.0,-11.31,-11.89,-11.85,0,*66
1546110123.59,52594,0.0,0.0,-11.33,-11.89,-11.85,0,*63
1546110124.88,52595,0.0,0.0,-11.33,-11.89,-11.89,0,*6E
1546110126.15,52596,0.0,0.0,-11.31,-11.89,-11.85,0,*63
1546110127.42,52597,0.0,0.0,-11.31,-11.89,-11.85,0,*62
1546110128.68,52598,0.0,0.0,-11.31,-11.89,-11.85,0,*6D
1546110129.95,52599,0.0,0.0,-11.31,-11.89,-11.85,0,*6C
1546110131.22,52600,0.0,0.0,-11.31,-11.89,-11.89,0,*63
1546110132.49,52601,0.0,0.0,-11.31,-11.85,-11.85,0,*62
1546110133.75,52602,0.0,0.0,-11.31,-11.89,-11.85,0,*6D
1546110135.02,52603,0.0,0.0,-11.31,-11.89,-11.89,0,*60
1546110136.3,52604,0.0,0.0,-11.31,-11.89,-11.89,0,*67
1546110137.57,52605,0.0,0.0,-11.31,-11.89,-11.89,0,*66
1546110138.83,52606,0.0,0.0,-11.31,-11.85,-11.85,0,*65
1546110140.1,52607,0.0,0.0,-11.31,-11.89,-11.85,0,*68
1546110141.37,52608,0.0,0.0,-11.31,-11.89,-11.89,0,*6B
1546110142.64,52609,0.0,0.0,-11.31,-11.89,-11.89,0,*6A
1546110143.91,52610,0.0,0.0,-11.31,-11.85,-11.85,0,*62
1546110145.18,52611,0.0,0.0,-11.31,-11.89,-11.89,0,*63
1546110146.45,52612,0.0,0.0,-11.31,-11.85,-11.89,0,*6C
1546110147.71,52613,0.0,0.0,-11.27,-11.85,-11.85,0,*66
1546110148.98,52614,0.0,0.0,-11.27,-11.81,-11.81,0,*61
1546110150.24,52615,0.0,0.0,-11.31,-11.85,-11.85,0,*67
1546110151.51,52616,0.0,0.0,-11.31,-11.89,-11.89,0,*64
1546110152.78,52617,0.0,0.0,-11.27,-11.85,-11.81,0,*66
1546110154.05,52618,0.0,0.0,-11.31,-11.89,-11.89,0,*6A
1546110155.32,52619,0.0,0.0,-11.31,-11.85,-11.85,0,*6B
1546110156.58,52620,0.0,0.0,-11.31,-11.85,-11.85,0,*61
1546110157.85,52621,0.0,0.0,-11.31,-11.85,-11.85,0,*60
1546110159.11,52622,0.0,0.0,-11.31,-11.85,-11.85,0,*63
1546110160.38,52623,0.0,0.0,-11.31,-11.89,-11.89,0,*62
1546110161.65,52624,0.0,0.0,-11.27,-11.81,-11.81,0,*62
1546110162.91,52625,0.0,0.0,-11.27,-11.85,-11.81,0,*67
1546110164.18,52626,0.0,0.0,-11.27,-11.85,-11.85,0,*60
1546110165.44,52627,0.0,0.0,-11.27,-11.85,-11.81,0,*65
1546110166.71,52628,0.0,0.0,-11.27,-11.85,-11.85,0,*6E
1546110167.98,52629,0.0,0.0,-11.31,-11.89,-11.85,0,*64
1546110169.25,52630,0.0,0.0,-11.31,-11.85,-11.85,0,*60
1546110170.51,52631,0.0,0.0,-11.31,-11.89,-11.85,0,*6D
1546110171.78,52632,0.0,0.0,-11.31,-11.89,-11.89,0,*62
1546110173.05,52633,0.0,0.0,-11.27,-11.81,-11.81,0,*64
1546110174.31,52634,0.0,0.0,-11.27,-11.81,-11.85,0,*67
1546110175.58,52635,0.0,0.0,-11.31,-11.85,-11.85,0,*65
1546110176.84,52636,0.0,0.0,-11.27,-11.85,-11.81,0,*65
1546110178.11,52637,0.0,0.0,-11.27,-11.85,-11.81,0,*64
1546110179.37,52638,0.0,0.0,-11.27,-11.85,-11.85,0,*6F
1546110180.64,52639,0.0,0.0,-11.27,-11.81,-11.81,0,*6E
1546110181.9,52640,0.0,0.0,-11.27,-11.81,-11.81,0,*60
1546110183.16,52641,0.0,0.0,-11.27,-11.81,-11.81,0,*61
1546110184.43,52642,0.0,0.0,-11.27,-11.89,-11.85,0,*6E
1546110185.7,52643,0.0,0.0,-11.31,-11.85,-11.85,0,*64
1546110186.96,52644,0.0,0.0,-11.27,-11.85,-11.81,0,*60
1546110188.22,52645,0.0,0.0,-11.31,-11.81,-11.85,0,*66
1546110189.49,52646,0.0,0.0,-11.27,-11.85,-11.81,0,*62
1546110190.76,52647,0.0,0.0,-11.27,-11.85,-11.81,0,*63
1546110192.02,52648,0.0,0.0,-11.27,-11.85,-11.81,0,*6C
1546110193.28,52649,0.0,0.0,-11.27,-11.85,-11.81,0,*6D
1546110194.55,52650,0.0,0.0,-11.31,-11.85,-11.85,0,*66
1546110195.83,52651,0.0,0.0,-11.27,-11.93,-11.85,0,*67
1546110197.09,52652,0.0,0.0,-11.31,-11.89,-11.85,0,*68
1546110198.36,52653,0.0,0.0,-11.27,-11.85,-11.85,0,*62
1546110199.63,52654,0.0,0.0,-11.27,-11.85,-11.81,0,*61
1546110200.9,52655,0.0,0.0,-11.27,-11.85,-11.85,0,*64
1546110202.16,52656,0.0,0.0,-11.27,-11.85,-11.85,0,*67
1546110203.43,52657,0.0,0.0,-11.27,-11.89,-11.85,0,*6A
1546110204.7,52658,0.0,0.0,-11.31,-11.89,-11.85,0,*62
1546110205.97,52659,0.0,0.0,-11.27,-11.85,-11.81,0,*6C
1546110207.23,52660,0.0,0.0,-11.27,-11.81,-11.85,0,*66
1546110208.49,52661,0.0,0.0,-11.27,-11.81,-11.81,0,*63
1546110209.76,52662,0.0,0.0,-11.27,-11.81,-11.85,0,*64
1546110211.02,52663,0.0,0.0,-11.27,-11.81,-11.85,0,*65
1546110212.29,52664,0.0,0.0,-11.31,-11.85,-11.89,0,*6D
1546110213.56,52665,0.0,0.0,-11.27,-11.85,-11.81,0,*63
1546110214.82,52666,0.0,0.0,-11.27,-11.85,-11.81,0,*60
1546110216.08,52667,0.0,0.0,-11.27,-11.81,-11.81,0,*65
1546110217.35,52668,0.0,0.0,-11.27,-11.85,-11.81,0,*6E
1546110218.62,52669,0.0,0.0,-11.27,-11.81,-11.85,0,*6F
1546110219.88,52670,0.0,0.0,-11.27,-11.85,-11.85,0,*63
1546110221.15,52671,0.0,0.0,-11.27,-11.81,-11.85,0,*66
1546110222.42,52672,0.0,0.0,-11.27,-11.85,-11.85,0,*61
1546110223.68,52673,0.0,0.0,-11.27,-11.81,-11.85,0,*64
1546110224.95,52674,0.0,0.0,-11.27,-11.85,-11.81,0,*63
1546110226.21,52675,0.0,0.0,-11.27,-11.85,-11.85,0,*66
1546110227.48,52676,0.0,0.0,-11.27,-11.81,-11.81,0,*65
1546110228.74,52677,0.0,0.0,-11.27,-11.85,-11.81,0,*60
1546110230.01,52678,0.0,0.0,-11.27,-11.85,-11.85,0,*6B
1546110231.27,52679,0.0,0.0,-11.27,-11.85,-11.81,0,*6E
1546110232.56,52680,0.0,0.0,-11.25,-11.81,-11.85,0,*6A
1546110233.83,52681,0.0,0.0,-11.27,-11.85,-11.81,0,*69
1546110235.11,52682,0.0,0.0,-11.25,-11.81,-11.81,0,*6C
1546110236.38,52683,0.0,0.0,-11.27,-11.85,-11.85,0,*6F
1546110237.64,52684,0.0,0.0,-11.27,-11.81,-11.81,0,*68
1546110238.92,52685,0.0,0.0,-11.25,-11.81,-11.81,0,*6B
1546110240.2,52686,0.0,0.0,-11.25,-11.81,-11.81,0,*68
1546110241.49,52687,0.0,0.0,-11.25,-11.85,-11.81,0,*6D
1546110242.78,52688,0.0,0.0,-11.25,-11.85,-11.85,0,*66
1546110244.05,52689,0.0,0.0,-11.27,-11.85,-11.85,0,*65
1546110245.31,52690,0.0,0.0,-11.27,-11.81,-11.81,0,*6D
1546110246.58,52691,0.0,0.0,-11.27,-11.85,-11.85,0,*6C
1546110247.86,52692,0.0,0.0,-11.25,-11.81,-11.81,0,*6D
1546110249.12,52693,0.0,0.0,-11.23,-11.77,-11.81,0,*63
1546110250.41,52694,0.0,0.0,-11.25,-11.85,-11.81,0,*6F
1546110251.69,52695,0.0,0.0,-11.25,-11.81,-11.81,0,*6A
1546110252.98,52696,0.0,0.0,-11.25,-11.81,-11.85,0,*6D
1546110254.26,52697,0.0,0.0,-11.25,-11.81,-11.81,0,*68
1546110255.52,52698,0.0,0.0,-11.23,-11.81,-11.77,0,*68
1546110256.81,52699,0.0,0.0,-11.25,-11.85,-11.85,0,*66
1546110258.09,52700,0.0,0.0,-11.25,-11.81,-11.81,0,*67
1546110259.35,52701,0.0,0.0,-11.23,-11.77,-11.77,0,*60
1546110260.64,52702,0.0,0.0,-11.25,-11.81,-11.85,0,*61
1546110261.93,52703,0.0,0.0,-11.25,-11.85,-11.85,0,*64
1546110263.21,52704,0.0,0.0,-11.25,-11.85,-11.81,0,*67
1546110264.5,52705,0.0,0.0,-11.25,-11.85,-11.85,0,*62
1546110265.79,52706,0.0,0.0,-11.25,-11.85,-11.85,0,*61
1546110267.08,52707,0.0,0.0,-11.25,-11.85,-11.81,0,*64
1546110268.34,52708,0.0,0.0,-11.23,-11.77,-11.81,0,*60
1546110269.63,52709,0.0,0.0,-11.25,-11.85,-11.85,0,*6E
1546110270.92,52710,0.0,0.0,-11.25,-11.81,-11.85,0,*62
1546110272.2,52711,0.0,0.0,-11.25,-11.85,-11.81,0,*63
1546110273.49,52712,0.0,0.0,-11.25,-11.85,-11.73,0,*6D
1546110274.77,52713,0.0,0.0,-11.25,-11.81,-11.81,0,*65
1546110276.04,52714,0.0,0.0,-11.23,-11.77,-11.77,0,*64
1546110277.3,52715,0.0,0.0,-11.23,-11.81,-11.81,0,*65
1546110278.55,52716,0.0,0.0,-11.23,-11.81,-11.81,0,*66
1546110279.81,52717,0.0,0.0,-11.23,-11.81,-11.81,0,*67
1546110281.07,52718,0.0,0.0,-11.23,-11.81,-11.77,0,*61
1546110282.34,52719,0.0,0.0,-11.23,-11.77,-11.81,0,*60
1546110283.62,52720,0.0,0.0,-11.25,-11.81,-11.85,0,*61
1546110284.89,52721,0.0,0.0,-11.23,-11.77,-11.81,0,*6B
1546110286.17,52722,0.0,0.0,-11.25,-11.81,-11.85,0,*63
1546110287.44,52723,0.0,0.0,-11.23,-11.77,-11.77,0,*60
1546110288.7,52724,0.0,0.0,-11.23,-11.81,-11.77,0,*6E
1546110289.98,52725,0.0,0.0,-11.25,-11.85,-11.81,0,*64
1546110291.24,52726,0.0,0.0,-11.23,-11.77,-11.81,0,*6C
1546110292.54,52727,0.0,0.0,-11.25,-11.93,-11.81,0,*61
1546110293.8,52728,0.0,0.0,-11.23,-11.77,-11.77,0,*6B
1546110295.09,52729,0.0,0.0,-11.25,-11.81,-11.85,0,*68
1546110296.35,52730,0.0,0.0,-11.23,-11.81,-11.77,0,*6B
1546110297.61,52731,0.0,0.0,-11.23,-11.77,-11.77,0,*63
1546110298.88,52732,0.0,0.0,-11.23,-11.77,-11.77,0,*60
1546110300.14,52733,0.0,0.0,-11.23,-11.77,-11.77,0,*61
1546110301.4,52734,0.0,0.0,-11.23,-11.77,-11.81,0,*6F
1546110302.66,52735,0.0,0.0,-11.23,-11.77,-11.81,0,*6E
1546110303.93,52736,0.0,0.0,-11.23,-11.77,-11.81,0,*6D
1546110305.19,52737,0.0,0.0,-11.23,-11.81,-11.77,0,*6C
1546110306.45,52738,0.0,0.0,-11.23,-11.77,-11.81,0,*63
1546110307.71,52739,0.0,0.0,-11.23,-11.77,-11.77,0,*6B
1546110309.0,52740,0.0,0.0,-11.25,-11.81,-11.85,0,*67
1546110310.26,52741,0.0,0.0,-11.23,-11.81,-11.67,0,*6C
1546110311.53,52742,0.0,0.0,-11.23,-11.77,-11.77,0,*67
1546110312.79,52743,0.0,0.0,-11.23,-11.77,-11.77,0,*66
1546110314.06,52744,0.0,0.0,-11.23,-11.77,-11.77,0,*61
1546110315.35,52745,0.0,0.0,-11.25,-11.85,-11.85,0,*66
1546110316.61,52746,0.0,0.0,-11.23,-11.81,-11.77,0,*6A
1546110317.87,52747,0.0,0.0,-11.23,-11.81,-11.81,0,*62
1546110319.13,52748,0.0,0.0,-11.23,-11.77,-11.77,0,*6D
1546110320.39,52749,0.0,0.0,-11.23,-11.77,-11.77,0,*6C
1546110321.65,52750,0.0,0.0,-11.23,-11.81,-11.77,0,*6D
1546110322.91,52751,0.0,0.0,-11.23,-11.81,-11.77,0,*6C
1546110324.18,52752,0.0,0.0,-11.23,-11.77,-11.77,0,*66
1546110325.44,52753,0.0,0.0,-11.23,-11.81,-11.77,0,*6E
1546110326.7,52754,0.0,0.0,-11.23,-11.81,-11.81,0,*60
1546110327.96,52755,0.0,0.0,-11.23,-11.81,-11.77,0,*68
1546110329.22,52756,0.0,0.0,-11.23,-11.77,-11.77,0,*62
1546110330.49,52757,0.0,0.0,-11.23,-11.77,-11.67,0,*62
1546110331.76,52758,0.0,0.0,-11.23,-11.85,-11.85,0,*6C
1546110333.02,52759,0.0,0.0,-11.23,-11.81,-11.77,0,*64
1546110334.28,52760,0.0,0.0,-11.23,-11.77,-11.81,0,*6E
1546110335.54,52761,0.0,0.0,-11.23,-11.81,-11.77,0,*6F
1546110336.8,52762,0.0,0.0,-11.23,-11.77,-11.77,0,*65
1546110338.09,52763,0.0,0.0,-11.21,-11.81,-11.77,0,*6F
1546110339.37,52764,0.0,0.0,-11.21,-11.81,-11.81,0,*61
1546110340.66,52765,0.0,0.0,-11.21,-11.77,-11.77,0,*60
1546110341.94,52766,0.0,0.0,-11.21,-11.81,-11.77,0,*6A
1546110343.23,52767,0.0,0.0,-11.21,-11.77,-11.77,0,*62
1546110344.51,52768,0.0,0.0,-11.21,-11.77,-11.77,0,*6D
1546110345.8,52769,0.0,0.0,-11.21,-11.77,-11.77,0,*6C
1546110347.09,52770,0.0,0.0,-11.21,-11.77,-11.81,0,*6D
1546110348.37,52771,0.0,0.0,-11.21,-11.77,-11.81,0,*6C
1546110349.66,52772,0.0,0.0,-11.21,-11.77,-11.77,0,*66
1546110350.93,52773,0.0,0.0,-11.23,-11.77,-11.77,0,*65
1546110352.21,52774,0.0,0.0,-11.21,-11.77,-11.81,0,*69
1546110353.48,52775,0.0,0.0,-11.19,-11.77,-11.77,0,*6A
1546110354.76,52776,0.0,0.0,-11.21,-11.77,-11.77,0,*62
1546110356.05,52777,0.0,0.0,-11.21,-11.77,-11.81,0,*6A
1546110357.33,52778,0.0,0.0,-11.21,-11.81,-11.81,0,*6C
1546110358.61,52779,0.0,0.0,-11.21,-11.81,-11.77,0,*64
1546110359.9,52780,0.0,0.0,-11.21,-11.77,-11.77,0,*6B
1546110361.18,52781,0.0,0.0,-11.21,-11.81,-11.81,0,*6A
1546110362.47,52782,0.0,0.0,-11.21,-11.81,-11.77,0,*60
1546110363.73,52783,0.0,0.0,-11.19,-11.77,-11.77,0,*63
1546110365.02,52784,0.0,0.0,-11.21,-11.77,-11.81,0,*66
1546110366.28,52785,0.0,0.0,-11.19,-11.81,-11.77,0,*6C
1546110367.54,52786,0.0,0.0,-11.19,-11.81,-11.77,0,*6F
1546110368.8,52787,0.0,0.0,-11.23,-11.81,-11.81,0,*6E
1546110370.05,52788,0.0,0.0,-11.23,-11.81,-11.81,0,*61
1546110371.32,52789,0.0,0.0,-11.19,-11.77,-11.77,0,*69
1546110372.6,52790,0.0,0.0,-11.21,-11.81,-11.77,0,*63
1546110373.88,52791,0.0,0.0,-11.21,-11.81,-11.81,0,*6B
1546110375.17,52792,0.0,0.0,-11.21,-11.89,-11.81,0,*60
1546110376.46,52793,0.0,0.0,-11.21,-11.77,-11.77,0,*69
1546110377.75,52794,0.0,0.0,-11.21,-11.77,-11.77,0,*6E
1546110379.03,52795,0.0,0.0,-11.21,-11.77,-11.77,0,*6F
1546110380.32,52796,0.0,0.0,-11.21,-11.77,-11.77,0,*6C
1546110381.58,52797,0.0,0.0,-11.19,-11.77,-11.81,0,*6F
1546110382.87,52798,0.0,0.0,-11.21,-11.81,-11.77,0,*6B
1546110384.15,52799,0.0,0.0,-11.21,-11.81,-11.81,0,*63
1546110385.43,52800,0.0,0.0,-11.21,-11.77,-11.81,0,*65
1546110386.72,52801,0.0,0.0,-11.21,-11.77,-11.77,0,*6D
1546110388.0,52802,0.0,0.0,-11.21,-11.81,-11.77,0,*67
1546110389.29,52803,0.0,0.0,-11.21,-11.81,-11.77,0,*66
1546110390.57,52804,0.0,0.0,-11.21,-11.81,-11.77,0,*61
1546110391.86,52805,0.0,0.0,-11.21,-11.81,-11.77,0,*60
1546110393.14,52806,0.0,0.0,-11.21,-11.77,-11.77,0,*6A
1546110394.4,52807,0.0,0.0,-11.19,-11.77,-11.81,0,*69
1546110395.67,52808,0.0,0.0,-11.19,-11.77,-11.77,0,*6F
1546110396.96,52809,0.0,0.0,-11.21,-11.77,-11.81,0,*6C
1546110398.24,52810,0.0,0.0,-11.21,-11.81,-11.81,0,*6D
1546110399.5,52811,0.0,0.0,-11.19,-11.77,-11.81,0,*6E
1546110400.79,52812,0.0,0.0,-11.21,-11.77,-11.77,0,*6F
1546110402.07,52813,0.0,0.0,-11.21,-11.81,-11.77,0,*67
1546110403.36,52814,0.0,0.0,-11.21,-11.77,-11.81,0,*60
1546110404.64,52815,0.0,0.0,-11.21,-11.77,-11.77,0,*68
1546110405.91,52816,0.0,0.0,-11.19,-11.77,-11.81,0,*69
1546110407.16,52817,0.0,0.0,-11.19,-11.81,-11.81,0,*61
1546110408.43,52818,0.0,0.0,-11.19,-11.77,-11.77,0,*6E
1546110409.69,52819,0.0,0.0,-11.19,-11.77,-11.77,0,*6F
1546110410.98,52820,0.0,0.0,-11.21,-11.77,-11.77,0,*6E
1546110412.24,52821,0.0,0.0,-11.19,-11.77,-11.77,0,*64
1546110413.5,52822,0.0,0.0,-11.19,-11.81,-11.81,0,*67
1546110414.76,52823,0.0,0.0,-11.19,-11.77,-11.77,0,*66
1546110416.03,52824,0.0,0.0,-11.19,-11.77,-11.77,0,*61
1546110417.29,52825,0.0,0.0,-11.19,-11.77,-11.77,0,*60
1546110418.55,52826,0.0,0.0,-11.19,-11.81,-11.77,0,*6A
1546110419.81,52827,0.0,0.0,-11.19,-11.81,-11.81,0,*62
1546110421.07,52828,0.0,0.0,-11.19,-11.77,-11.77,0,*6D
1546110422.36,52829,0.0,0.0,-11.21,-11.77,-11.81,0,*6E
1546110423.62,52830,0.0,0.0,-11.19,-11.81,-11.81,0,*64
1546110424.88,52831,0.0,0.0,-11.19,-11.77,-11.77,0,*65
1546110426.15,52832,0.0,0.0,-11.19,-11.77,-11.77,0,*66
1546110427.41,52833,0.0,0.0,-11.19,-11.77,-11.77,0,*67
1546110428.67,52834,0.0,0.0,-11.19,-11.77,-11.77,0,*60
1546110429.93,52835,0.0,0.0,-11.19,-11.81,-11.77,0,*68
1546110431.19,52836,0.0,0.0,-11.19,-11.77,-11.77,0,*62
1546110432.46,52837,0.0,0.0,-11.19,-11.77,-11.77,0,*63
1546110433.72,52838,0.0,0.0,-11.19,-11.81,-11.77,0,*65
1546110435.0,52839,0.0,0.0,-11.21,-11.81,-11.81,0,*66
1546110436.26,52840,0.0,0.0,-11.19,-11.81,-11.77,0,*6A
1546110437.55,52841,0.0,0.0,-11.21,-11.77,-11.77,0,*69
1546110438.84,52842,0.0,0.0,-11.17,-11.77,-11.73,0,*6B
1546110440.1,52843,0.0,0.0,-11.19,-11.77,-11.77,0,*60
1546110441.36,52844,0.0,0.0,-11.19,-11.77,-11.77,0,*67
1546110442.63,52845,0.0,0.0,-11.19,-11.77,-11.77,0,*66
1546110443.92,52846,0.0,0.0,-11.17,-11.77,-11.73,0,*6F
1546110445.18,52847,0.0,0.0,-11.19,-11.77,-11.77,0,*64
1546110446.44,52848,0.0,0.0,-11.19,-11.81,-11.81,0,*6B
1546110447.7,52849,0.0,0.0,-11.19,-11.77,-11.77,0,*6A
1546110448.96,52850,0.0,0.0,-11.19,-11.77,-11.81,0,*6B
1546110450.25,52851,0.0,0.0,-11.17,-11.77,-11.77,0,*6D
1546110451.54,52852,0.0,0.0,-11.17,-11.77,-11.77,0,*6E
1546110452.83,52853,0.0,0.0,-11.17,-11.77,-11.73,0,*6B
1546110454.09,52854,0.0,0.0,-11.19,-11.77,-11.81,0,*6F
1546110455.37,52855,0.0,0.0,-11.21,-11.81,-11.81,0,*6C
1546110456.63,52856,0.0,0.0,-11.19,-11.81,-11.81,0,*64
1546110457.89,52857,0.0,0.0,-11.19,-11.77,-11.81,0,*6C
1546110459.15,52858,0.0,0.0,-11.19,-11.81,-11.81,0,*6A
1546110460.41,52859,0.0,0.0,-11.19,-11.81,-11.81,0,*6B
1546110461.7,52860,0.0,0.0,-11.17,-11.73,-11.73,0,*6F
1546110462.96,52861,0.0,0.0,-11.19,-11.77,-11.77,0,*60
1546110464.22,52862,0.0,0.0,-11.19,-11.81,-11.77,0,*6A
1546110465.48,52863,0.0,0.0,-11.19,-11.77,-11.77,0,*62
1546110466.74,52864,0.0,0.0,-11.19,-11.81,-11.77,0,*6C
1546110468.0,52865,0.0,0.0,-11.19,-11.81,-11.77,0,*6D
1546110469.29,52866,0.0,0.0,-11.17,-11.77,-11.77,0,*69
1546110470.57,52867,0.0,0.0,-11.17,-11.73,-11.73,0,*68
1546110471.86,52868,0.0,0.0,-11.17,-11.73,-11.77,0,*63
1546110473.15,52869,0.0,0.0,-11.17,-11.77,-11.77,0,*66
1546110474.43,52870,0.0,0.0,-11.17,-11.77,-11.77,0,*6E
1546110475.72,52871,0.0,0.0,-11.17,-11.77,-11.73,0,*6B
1546110477.01,52872,0.0,0.0,-11.17,-11.77,-11.77,0,*6C
1546110478.29,52873,0.0,0.0,-11.17,-11.73,-11.73,0,*6D
1546110479.58,52874,0.0,0.0,-11.17,-11.73,-11.77,0,*6E
1546110480.86,52875,0.0,0.0,-11.17,-11.73,-11.73,0,*6B
1546110482.15,52876,0.0,0.0,-11.17,-11.73,-11.73,0,*68
1546110483.43,52877,0.0,0.0,-11.17,-11.73,-11.73,0,*69
1546110484.72,52878,0.0,0.0,-11.17,-11.77,-11.73,0,*62
1546110486.01,52879,0.0,0.0,-11.17,-11.73,-11.73,0,*67
1546110487.3,52880,0.0,0.0,-11.17,-11.77,-11.73,0,*65
1546110488.58,52881,0.0,0.0,-11.17,-11.73,-11.73,0,*60
1546110489.87,52882,0.0,0.0,-11.17,-11.73,-11.77,0,*67
1546110491.13,52883,0.0,0.0,-11.15,-11.73,-11.73,0,*60
1546110492.39,52884,0.0,0.0,-11.15,-11.73,-11.67,0,*62
1546110493.68,52885,0.0,0.0,-11.17,-11.77,-11.77,0,*64
1546110494.97,52886,0.0,0.0,-11.17,-11.77,-11.73,0,*63
1546110496.25,52887,0.0,0.0,-11.17,-11.73,-11.73,0,*66
1546110497.54,52888,0.0,0.0,-11.17,-11.73,-11.73,0,*69
1546110498.83,52889,0.0,0.0,-11.17,-11.77,-11.73,0,*6C
1546110500.09,52890,0.0,0.0,-11.15,-11.73,-11.67,0,*67
1546110501.38,52891,0.0,0.0,-11.17,-11.77,-11.73,0,*65
1546110502.64,52892,0.0,0.0,-11.15,-11.67,-11.67,0,*60
1546110503.93,52893,0.0,0.0,-11.17,-11.73,-11.77,0,*67
1546110505.19,52894,0.0,0.0,-11.15,-11.73,-11.67,0,*63
1546110506.46,52895,0.0,0.0,-11.15,-11.67,-11.67,0,*67
1546110507.72,52896,0.0,0.0,-11.15,-11.73,-11.67,0,*61
1546110508.98,52897,0.0,0.0,-11.15,-11.73,-11.73,0,*65
1546110510.27,52898,0.0,0.0,-11.17,-11.77,-11.73,0,*6C
1546110511.54,52899,0.0,0.0,-11.15,-11.67,-11.67,0,*6B
1546110512.83,52900,0.0,0.0,-11.17,-11.67,-11.73,0,*6D
1546110514.09,52901,0.0,0.0,-11.15,-11.73,-11.67,0,*6E
1546110515.37,52902,0.0,0.0,-11.17,-11.73,-11.77,0,*6E
1546110516.63,52903,0.0,0.0,-11.15,-11.73,-11.73,0,*69
1546110517.91,52904,0.0,0.0,-11.17,-11.73,-11.77,0,*68
1546110519.18,52905,0.0,0.0,-11.15,-11.73,-11.73,0,*6F
1546110520.46,52906,0.0,0.0,-11.17,-11.73,-11.73,0,*6E
1546110521.75,52907,0.0,0.0,-11.17,-11.77,-11.73,0,*6B
1546110523.01,52908,0.0,0.0,-11.15,-11.73,-11.73,0,*62
1546110524.27,52909,0.0,0.0,-11.15,-11.67,-11.73,0,*66
1546110525.54,52910,0.0,0.0,-11.15,-11.73,-11.67,0,*6E
1546110526.82,52911,0.0,0.0,-11.17,-11.77,-11.77,0,*68
1546110528.09,52912,0.0,0.0,-11.15,-11.67,-11.67,0,*69
1546110529.35,52913,0.0,0.0,-11.15,-11.73,-11.67,0,*6D
1546110530.61,52914,0.0,0.0,-11.15,-11.73,-11.73,0,*6F
1546110531.87,52915,0.0,0.0,-11.15,-11.73,-11.73,0,*6E
1546110533.13,52916,0.0,0.0,-11.15,-11.73,-11.73,0,*6D
1546110534.4,52917,0.0,0.0,-11.15,-11.67,-11.67,0,*6C
1546110535.67,52918,0.0,0.0,-11.15,-11.67,-11.67,0,*63
1546110536.93,52919,0.0,0.0,-11.15,-11.73,-11.67,0,*67
1546110538.19,52920,0.0,0.0,-11.15,-11.67,-11.67,0,*68
1546110539.46,52921,0.0,0.0,-11.15,-11.67,-11.67,0,*69
1546110540.72,52922,0.0,0.0,-11.15,-11.73,-11.67,0,*6F
1546110541.99,52923,0.0,0.0,-11.15,-11.67,-11.67,0,*6B
1546110543.25,52924,0.0,0.0,-11.15,-11.73,-11.67,0,*69
1546110544.52,52925,0.0,0.0,-11.15,-11.73,-11.67,0,*68
1546110545.78,52926,0.0,0.0,-11.15,-11.67,-11.67,0,*6E
1546110547.05,52927,0.0,0.0,-11.15,-11.67,-11.73,0,*6A
1546110548.31,52928,0.0,0.0,-11.15,-11.67,-11.67,0,*60
1546110549.6,52929,0.0,0.0,-11.13,-11.73,-11.67,0,*62
1546110550.87,52930,0.0,0.0,-11.15,-11.67,-11.67,0,*69
1546110552.13,52931,0.0,0.0,-11.15,-11.73,-11.67,0,*6D
1546110553.42,52932,0.0,0.0,-11.17,-11.73,-11.73,0,*69
1546110554.7,52933,0.0,0.0,-11.17,-11.73,-11.77,0,*6C
1546110555.97,52934,0.0,0.0,-11.15,-11.67,-11.73,0,*68